Location: *
(38.9800°N, 16.0500°E)
Time: 18:51:25
(UTC+00:00)

ARIANE 5 R/B - Pass Details

Date: 07 April 2020
Orbit: 748 x 795 km, 98.6° (Epoch: 06 June)

Event Time Altitude Azimuth Distance (km) Brightness Sun altitude
Rises 01:59:20 0° 9° (N) 3,295 6.4 -27.8°
Reaches altitude 10° 02:01:41 10° 6° (N) 2,366 5.5 -27.4°
Enters shadow 02:06:13 56° 318° (NW) 941 2.8 -26.7°
